Location: Équennes
(49.7375°N, 1.9622°E)
Time: 01:37:58
(UTC+00:00)

Cosmos 407 Rocket - Pass Details

Date: 28 January 2023
Orbit: 742 x 786 km, 74.0° (Epoch: 30 March)

Event Time Altitude Azimuth Distance (km) Brightness Sun altitude
Rises 19:20:44 0° 218° (SW) 3,198 7.2 -25.9°
Reaches altitude 10° 19:23:10 10° 224° (SW) 2,271 6.4 -26.3°
Maximum altitude 19:28:10 50° 300° (WNW) 956 4.2 -27.1°
Enters shadow 19:30:35 28° 0° (N) 1,383 4.8 -27.4°
